Regional Weather Roundup
Issued by NWS

Home | Current Version | Previous Version | Graphics & Text | Print | Product List | Glossary On
Versions: 1 2 3 4 5 6 7 8 9 10 11 12 13 14 15 16 17 18 19 20 21 22 23 24 25 26 27 28 29 30 31 32 33 34 35 36 37 38 39 40 41 42 43 44 45 46 47 48 49 50
909
ASUS43 KBIS 302002
RWRND

NORTH DAKOTA REGIONAL WEATHER ROUNDUP
NATIONAL WEATHER SERVICE BISMARCK ND
300 PM CDT SAT APR 30 2016

NOTE: "FAIR" INDICATES FEW OR NO CLOUDS BELOW 12,000 FEET WITH NO
SIGNIFICANT WEATHER AND/OR OBSTRUCTIONS TO VISIBILITY.


NDZ001>003-009>011-017-302100-
NORTHWEST NORTH DAKOTA

CITY           SKY/WX    TMP DP  RH WIND       PRES   REMARKS
WILLISTON      SUNNY     62  29  28 E12       30.25F
MINOT          MOSUNNY   66  28  24 E14G24    30.24S
MINOT AFB      SUNNY     61  29  29 E16G24    30.23F
$$

NDZ018>021-031>035-040>046-302100-
SOUTHWEST NORTH DAKOTA

CITY           SKY/WX    TMP DP  RH WIND       PRES   REMARKS
BISMARCK       SUNNY     60  29  30 E23G32    30.19S
DICKINSON      CLOUDY    54  30  40 NE20      30.19S
GARRISON         N/A     59  29  31 E18G26    30.23S
HETTINGER ARPT CLOUDY    55  34  45 NE18G25   30.18R
$$

NDZ004>008-012>016-024-026-027-054-302100-
NORTHEAST NORTH DAKOTA

CITY           SKY/WX    TMP DP  RH WIND       PRES   REMARKS
GRAND FORKS    MOSUNNY   61  28  28 NE22G29   30.21F
GRND FRKS AFB  SUNNY     60  25  25 E20G29    30.21F
DEVILS LAKE    SUNNY     58  29  33 NE15G26   30.24F
$$

NDZ022-023-025-028>030-036>039-047>053-302100-
SOUTHEAST NORTH DAKOTA

CITY           SKY/WX    TMP DP  RH WIND       PRES   REMARKS
FARGO          CLOUDY    64  27  24 E17G28    30.14F
JAMESTOWN      SUNNY     60  29  30 E21G29    30.16F
$$





USA.gov is the U.S. government's official web portal to all federal, state and local government web resources and services.